THOR ABLESTAR DEB, 21986

Orbit data source: Space-Track

THOR ABLESTAR DEB, 21986 is space debris in LEO originally from a launch on Thu, 29 Jun 1961 UTC launched from the Air Force Eastern Test Range (AFETR). Debris objects in space refer to the collection of defunct objects orbiting the Earth. Examples of debris include non-operational satellites, rocket bodies, and fragments generated from explosions, collisions, or faulty payload assembly.

Loading next visibility...
Identifier
21986, 1961-015MM
Orbit
LEO
Country
Flag of USUS
Related business
Manufacturer
Unknown
Mission
Spacecraft
Bus & Motor
Unknown
Mass
Unknown
Launch date (UTC)
1961-06-29 (65 years ago)
Launch vehicle
Unknown
Launch site
Air Force Eastern Test Range (AFETR)
Object type
Payload
Rocket body
Debris
Shape & HBR
Unknown shape, 0.1 m
Radar Cross Section
Small (<0.1 m²)

Expand to show TLE details & history
Last TLE update: 16 hours ago

TLE from 16 hours ago
0 THOR ABLESTAR DEB
1 21986U 61015MM  26035.30238140  .00000327  00000-0  23728-3 0  9993
2 21986  66.8766 138.0226 0090406 132.3092 262.3339 14.06309970734212
Epoch: 2026-02-04T07:15Z
TLE epoch observation values (Epoch: 2026-02-04T07:15:25.752Z)
Latitude
30.67698°
Longitude
-90.71077°
Altitude
884.403 km
Speed
7.408 km/s
True Right ascension
10h 10m 28s
True Declination
30° 31' 44"
Sunlit
Object was in full shadow at epoch
Visualization orbit readout
Latitude
Unknown
Longitude
Unknown
Altitude
Unknown
Speed
Unknown
Apparent Right ascension
Unknown
Apparent Declination
Unknown
Sunlit
N/A
Visualization observer readout
Local Sidereal Time
00:59:03
Azimuth
Unknown
Elevation
Unknown
Doppler factor
Unknown
Orbital elements
Apogee altitude
935.93 km
Perigee altitude
804.868 km
Semi-major axis
7,248.536 km
Eccentricity
0.00904
Inclination
66.8766°
RAAN
138.0226°
Arg. of periapsis
132.3092°
True anomaly
261.30878°
Mean anomaly
262.3339°
Eccentric anomaly
261.82118°
Mean motion
3.51696 °/min
Orbital period
102.36 mins
BSTAR
0.00023728
Loading maneuver chart data...
Computing Atmospheric mass density...

Documentation

Showing up to 5 results
|